カタログに戻る

FENGYUN 1C DEB

運用中SSO
NORAD 31692·DEBRIS·🇨🇳 China

打ち上げ May 10, 1999 から Taiyuan Satellite Launch Center

Loading…

次のパス (今後24時間)

TLE

経年Source: Space-Track

元期: Sep 6, 2026, 07:00 UTC

1 31692U 99025CDA 26249.29174249  .00002928  00000-0  13178-2 0  9990
2 31692  99.1806 260.6533 0086755  43.7634 317.0375 14.21123170620061

AllMySatでFENGYUN 1C DEBをリアルタイム追跡

Download on the App Store